Starlink 11459

operational
NORAD ID: 62464 Int'l Des: 2024-254 Owner: SPXS Country: US Constellation: starlink
LEOCIRCULAR

Starlink 11459について

説明を読み込み中...

リアルタイム位置

3D地球を読み込み中...

次回通過

高度履歴

Altitude vs Time

uPlot chart will show altitude changes over time

軌道要素

1 62464U 24254C 25346.33349537 .00391478 00000-0 12568-2 0 9992
2 62464 42.9880 26.0753 0008406 66.0492 187.2832 15.89156729 6014
Epoch: Dec 12, 2025 • Age: 17 hours

現在のステータス

高度 306.0 km
速度 7.73 km/s
衛星直下点 -14.18°S, 90.21°W
打ち上げ日 Dec 31, 2024
運用期間 0.9 years
タイプ internet

技術仕様

分類 Payload
質量 960.00 kg
乾燥質量 910.00 kg
総質量 960.00 kg
長さ 0.30 m
直径 4.10 m
スパン 29.00 m
形状 Box + pan
製造者 SPXS
バスタイプ Starlink V2MD
フェーズステータス In Orbit
所有者/国 SPXS/US

大規模コンステレーション

Loading constellations...